Crosby, ND

2:48 AM CDT on April 20, 2018 (GMT -0500)
Crosby

Weather History for KD50 - March, 2014

Change the Weather History Date:

Sunday, March 16, 2014

  Actual Average (KISN) Record (KISN)
Temperature  
Mean Temperature 38 °F -  
Max Temperature 53 °F 41 °F 77 °F (2012)
Min Temperature 23 °F 18 °F -10 °F (1906)
Degree Days  
Heating Degree Days 27    
Moisture  
Dew Point 30 °F    
Average Humidity 84    
Maximum Humidity 100    
Minimum Humidity 51    
Precipitation  
Precipitation 0.00 in - - ()
Sea Level Pressure  
Sea Level Pressure 29.86 in    
Wind  
Wind Speed 17 mph (SW)    
Max Wind Speed 28 mph    
Max Gust Speed 37 mph    
Visibility 10 miles    
Events      
Averages and records for this station are not official NWS values.
T = Trace of Precipitation, MM = Missing Value Source: NWS Daily Summary

Daily Weather History Graph

Daily Weather History Graph

Search for Another Location

Airport or City:

Astronomy

Mar. 16, 2014 Rise Set
Actual Time 8:04 AM CDT 8:00 PM CDT
Civil Twilight 7:32 AM CDT 8:31 PM CDT
Nautical Twilight 6:56 AM CDT 9:08 PM CDT
Astronomical Twilight 6:18 AM CDT 9:46 PM CDT
Moon 8:24 PM CDT (3/16) 7:47 AM CDT (3/16)
Length of Visible Light 12h 58m
Length of Day
11h 55m
Full, 100% of the Moon is Illuminated
Mar 16
Full
Mar 16
Full
Mar 23
Last Quarter
Mar 30
New
Apr 7
First Quarter

Hourly Weather History & Observations

Time (CDT) Temp. Windchill Dew Point Humidity Pressure Visibility Wind Dir Wind Speed Gust Speed Precip Events Conditions
12:15 AM 24.8 °F 14.6 °F 19.4 °F 80% 30.28 in 10.0 mi South 10.4 mph - N/A   Unknown
12:35 AM 24.8 °F 11.9 °F 19.4 °F 80% 30.26 in 10.0 mi South 16.1 mph 20.7 mph N/A   Unknown
12:55 AM 24.8 °F 11.5 °F 19.4 °F 80% 30.25 in 10.0 mi South 17.3 mph 21.9 mph N/A   Unknown
1:15 AM 24.8 °F 12.4 °F 21.2 °F 86% 30.24 in 10.0 mi South 15.0 mph - N/A   Unknown
1:35 AM 24.8 °F 11.5 °F 21.2 °F 86% 30.23 in 10.0 mi South 17.3 mph 26.5 mph N/A   Unknown
1:55 AM 24.8 °F 11.1 °F 21.2 °F 86% 30.22 in 10.0 mi South 18.4 mph 23.0 mph N/A   Unknown
2:15 AM 24.8 °F 9.3 °F 23.0 °F 93% 30.19 in 10.0 mi South 24.2 mph 27.6 mph N/A   Unknown
2:35 AM 24.8 °F 9.0 °F 23.0 °F 93% 30.17 in 10.0 mi South 25.3 mph 34.5 mph N/A   Unknown
2:55 AM 24.8 °F 9.6 °F 23.0 °F 93% 30.17 in 10.0 mi South 23.0 mph 32.2 mph N/A   Unknown
3:15 AM 24.8 °F 11.1 °F 23.0 °F 93% 30.18 in 10.0 mi South 18.4 mph 26.5 mph N/A   Unknown
3:35 AM 23.0 °F 8.0 °F 23.0 °F 100% 30.17 in 10.0 mi South 20.7 mph 27.6 mph N/A   Unknown
3:55 AM 23.0 °F 10.1 °F 21.2 °F 93% 30.16 in 10.0 mi South 15.0 mph - N/A   Unknown
4:15 AM 23.0 °F 9.6 °F 21.2 °F 93% 30.15 in 10.0 mi South 16.1 mph - N/A   Unknown
4:35 AM 23.0 °F 9.2 °F 23.0 °F 100% 30.14 in 10.0 mi South 17.3 mph 21.9 mph N/A   Unknown
4:55 AM 24.8 °F 11.5 °F 23.0 °F 93% 30.13 in 10.0 mi South 17.3 mph - N/A   Unknown
5:15 AM 24.8 °F 10.3 °F 23.0 °F 93% 30.11 in 10.0 mi South 20.7 mph 26.5 mph N/A   Unknown
5:35 AM 24.8 °F 11.1 °F 23.0 °F 93% 30.10 in 10.0 mi South 18.4 mph 24.2 mph N/A   Unknown
5:55 AM 24.8 °F 11.1 °F 24.8 °F 100% 30.10 in 10.0 mi South 18.4 mph 25.3 mph N/A   Unknown
6:15 AM 26.6 °F 13.1 °F 24.8 °F 93% 30.08 in 10.0 mi South 19.6 mph 23.0 mph N/A   Unknown
6:35 AM 26.6 °F 12.7 °F 24.8 °F 93% 30.06 in 10.0 mi South 20.7 mph 26.5 mph N/A   Unknown
6:55 AM 26.6 °F 12.0 °F 24.8 °F 93% 30.04 in 10.0 mi South 23.0 mph 28.8 mph N/A   Unknown
7:15 AM 26.6 °F 11.7 °F 26.6 °F 100% 30.02 in 10.0 mi South 24.2 mph 29.9 mph N/A   Unknown
7:35 AM 26.6 °F 12.4 °F 26.6 °F 100% 29.99 in 10.0 mi South 21.9 mph 29.9 mph N/A   Unknown
7:55 AM 26.6 °F 12.4 °F 26.6 °F 100% 29.97 in 10.0 mi South 21.9 mph 31.1 mph N/A   Unknown
8:15 AM 28.4 °F 15.1 °F 26.6 °F 93% 29.95 in 10.0 mi South 20.7 mph 27.6 mph N/A   Unknown
8:35 AM 28.4 °F 15.1 °F 26.6 °F 93% 29.94 in 10.0 mi South 20.7 mph 27.6 mph N/A   Unknown
8:55 AM 28.4 °F 14.7 °F 26.6 °F 93% 29.93 in 10.0 mi South 21.9 mph 29.9 mph N/A   Unknown
9:15 AM 28.4 °F 14.7 °F 26.6 °F 93% 29.92 in 10.0 mi South 21.9 mph 29.9 mph N/A   Unknown
9:35 AM 28.4 °F 15.4 °F 28.4 °F 100% 29.90 in 10.0 mi South 19.6 mph 25.3 mph N/A   Unknown
9:55 AM 30.2 °F 17.4 °F 28.4 °F 93% 29.89 in 10.0 mi South 20.7 mph 31.1 mph N/A   Unknown
10:15 AM 32.0 °F 18.9 °F 28.4 °F 87% 29.87 in 10.0 mi South 24.2 mph 29.9 mph N/A   Unknown
10:35 AM 32.0 °F 19.2 °F 28.4 °F 87% 29.86 in 10.0 mi South 23.0 mph - N/A   Unknown
10:55 AM 32.0 °F 19.8 °F 30.2 °F 93% 29.84 in 10.0 mi South 20.7 mph 28.8 mph N/A   Unknown
11:15 AM 33.8 °F 22.2 °F 32.0 °F 93% 29.84 in 10.0 mi South 20.7 mph 27.6 mph N/A   Unknown
11:35 AM 33.8 °F 20.8 °F 32.0 °F 93% 29.82 in 10.0 mi SSW 26.5 mph 34.5 mph N/A   Unknown
11:55 AM 35.6 °F 23.0 °F 32.0 °F 87% 29.80 in 10.0 mi SSW 27.6 mph 33.4 mph N/A   Unknown
12:15 PM 37.4 °F 25.6 °F 32.0 °F 81% 29.78 in 10.0 mi SSW 26.5 mph 36.8 mph N/A   Unknown
12:35 PM 37.4 °F 25.9 °F 33.8 °F 87% 29.76 in 10.0 mi SSW 25.3 mph 36.8 mph N/A   Unknown
12:55 PM 39.2 °F 27.8 °F 33.8 °F 81% 29.76 in 10.0 mi SSW 27.6 mph 33.4 mph N/A   Unknown
1:15 PM 41.0 °F 30.7 °F 35.6 °F 81% 29.74 in 10.0 mi SSW 25.3 mph 32.2 mph N/A   Unknown
1:35 PM 44.6 °F 36.4 °F 37.4 °F 76% 29.73 in 10.0 mi SSW 20.7 mph 28.8 mph N/A   Unknown
1:55 PM 46.4 °F 38.5 °F 35.6 °F 66% 29.72 in 10.0 mi SW 21.9 mph 27.6 mph N/A   Unknown
2:15 PM 46.4 °F 39.2 °F 33.8 °F 62% 29.71 in 10.0 mi SW 18.4 mph 25.3 mph N/A   Unknown
2:35 PM 46.4 °F 39.5 °F 35.6 °F 66% 29.69 in 10.0 mi WSW 17.3 mph 24.2 mph N/A   Unknown
2:55 PM 46.4 °F 38.5 °F 35.6 °F 66% 29.68 in 10.0 mi SW 21.9 mph 27.6 mph N/A   Unknown
3:15 PM 50.0 °F - 37.4 °F 62% 29.67 in 10.0 mi WSW 18.4 mph 26.5 mph N/A   Unknown
3:35 PM 51.8 °F - 37.4 °F 58% 29.67 in 10.0 mi WSW 17.3 mph 21.9 mph N/A   Unknown
3:55 PM 53.6 °F - 35.6 °F 51% 29.66 in 10.0 mi WNW 20.7 mph 31.1 mph N/A   Unknown
4:15 PM 53.6 °F - 35.6 °F 51% 29.66 in 10.0 mi WNW 23.0 mph 29.9 mph N/A   Unknown
4:35 PM 53.6 °F - 37.4 °F 54% 29.67 in 10.0 mi WNW 21.9 mph 26.5 mph N/A   Unknown
4:55 PM 53.6 °F - 37.4 °F 54% 29.68 in 10.0 mi WNW 18.4 mph 25.3 mph N/A   Unknown
5:15 PM 50.0 °F - 35.6 °F 58% 29.68 in 10.0 mi NW 18.4 mph - N/A   Unknown
5:35 PM 50.0 °F - 35.6 °F 58% 29.67 in 10.0 mi NW 17.3 mph 21.9 mph N/A   Unknown
5:55 PM 50.0 °F - 33.8 °F 54% 29.68 in 10.0 mi NW 17.3 mph 25.3 mph N/A   Unknown
6:15 PM 48.2 °F - 35.6 °F 62% 29.67 in 10.0 mi NW 13.8 mph - N/A   Unknown
6:35 PM 46.4 °F 41.9 °F 35.6 °F 66% 29.67 in 10.0 mi NW 9.2 mph - N/A   Unknown
6:55 PM 46.4 °F 41.5 °F 35.6 °F 66% 29.66 in 10.0 mi NW 10.4 mph - N/A   Unknown
7:15 PM 44.6 °F 39.2 °F 35.6 °F 71% 29.66 in 10.0 mi WNW 10.4 mph - N/A   Unknown
7:35 PM 41.0 °F 35.8 °F 35.6 °F 81% 29.66 in 10.0 mi NW 8.1 mph - N/A   Unknown
7:55 PM 41.0 °F 35.2 °F 35.6 °F 81% 29.66 in 10.0 mi NNW 9.2 mph - N/A   Unknown
8:15 PM 39.2 °F 33.6 °F 35.6 °F 87% 29.65 in 10.0 mi NW 8.1 mph - N/A   Unknown
8:35 PM 37.4 °F 31.4 °F 35.6 °F 93% 29.64 in 10.0 mi NW 8.1 mph - N/A   Unknown
8:55 PM 37.4 °F 30.8 °F 35.6 °F 93% 29.64 in 10.0 mi NNW 9.2 mph - N/A   Unknown
9:15 PM 37.4 °F 30.8 °F 35.6 °F 93% 29.63 in 10.0 mi North 9.2 mph - N/A   Unknown
9:35 PM 37.4 °F 31.4 °F 35.6 °F 93% 29.62 in 10.0 mi North 8.1 mph - N/A   Unknown
9:55 PM 37.4 °F 32.8 °F 35.6 °F 93% 29.62 in 10.0 mi NW 5.8 mph - N/A   Unknown
10:15 PM 35.6 °F - 35.6 °F 100% 29.62 in 10.0 mi Calm Calm - N/A   Unknown
10:35 PM 33.8 °F 30.8 °F 33.8 °F 100% 29.61 in 10.0 mi SE 3.5 mph - N/A   Unknown
10:55 PM 35.6 °F 29.9 °F 35.6 °F 100% 29.61 in 10.0 mi SSW 6.9 mph - N/A   Unknown
11:15 PM 35.6 °F 29.9 °F 35.6 °F 100% 29.60 in 10.0 mi South 6.9 mph - N/A   Unknown
11:35 PM 35.6 °F 29.9 °F 35.6 °F 100% 29.59 in 10.0 mi SSW 6.9 mph - N/A   Unknown
11:55 PM 35.6 °F 29.2 °F 35.6 °F 100% 29.59 in 10.0 mi SSW 8.1 mph - N/A   Unknown